Location: Fort Frances
(48.6170°N, 93.4170°W)
Time: 13:48:17
(UTC-06:00)

Daily predictions for brighter satellites

Satellite Brightness Start Highest point End
(mag) Time Altitude Azimuth Time Altitude Azimuth Time Altitude Azimuth
Cosmos 2360 Rocket 2.9 17:22:02 10° SW 17:27:31 54° WNW 17:33:04 10° NNE
SPOT 3 Rocket 3.5 17:24:02 10° SSE 17:29:09 71° ENE 17:34:20 10° N
Cosmos 1980 Rocket 4.4 17:26:22 10° WNW 17:29:24 15° NNW 17:32:27 10° N
MSX 3.8 17:24:04 10° SSE 17:29:42 64° ENE 17:35:24 10° N
SJ-7 4.3 17:26:37 10° SSE 17:30:38 69° ENE 17:34:37 10° N
Resurs 01 Rocket 3.6 17:30:17 10° ENE 17:30:47 10° NE 17:31:16 10° NE
Cosmos 1980 4.4 17:27:08 10° S 17:32:13 35° ESE 17:37:20 10° NE
COSMOS 2441 4.5 17:28:49 10° SSE 17:33:34 55° ENE 17:38:18 10° N
Cosmos 332 Rocket 3.9 17:29:53 10° S 17:34:38 61° ESE 17:39:27 10° NNE
Cosmos 2228 Rocket 3.2 17:31:03 10° N 17:35:30 86° W 17:39:56 10° S
CORIOLIS 4.1 17:31:26 10° SSE 17:36:46 80° ENE 17:42:10 10° NNW
ATLAS 5 CENTAUR R/B 3.8 17:33:36 10° NW 17:37:17 18° N 17:41:11 10° NE
Cosmos 2279 Rocket 4.4 17:31:47 10° N 17:37:38 41° ENE 17:43:28 10° SE
Cosmos 2151 3.8 17:34:34 10° SSE 17:38:15 30° E 17:41:56 10° NNE
MOS 1 4.4 17:33:42 10° SSE 17:39:22 89° ENE 17:45:06 10° NNW
Orbus 7S? 4.2 17:37:54 10° NW 17:40:59 38° NNE 17:46:44 10° E
Cosmos 44 4.0 17:39:15 10° S 17:44:04 39° ESE 17:48:43 10° NE
Cosmos 1328 4.1 17:41:04 10° SSE 17:44:49 43° E 17:48:35 10° NNE
CZ-4 R/B 2.1 17:44:15 10° S 17:48:03 56° W 17:51:56 10° NNW
Cosmos 1328 Rocket 4.1 17:44:35 10° NNW 17:49:01 67° W 17:53:25 10° S
ALOS 3.7 17:46:46 10° E 17:49:39 16° ENE 17:52:33 10° NNE
Cosmos 2333 Rocket 2.3 17:45:46 10° S 17:51:16 57° ESE 17:56:49 10° NE
Cosmos 1743 Rocket 3.6 17:47:01 10° S 17:51:29 88° E 17:56:00 10° N
IDEFIX/ARIANE 42P 3.2 17:46:37 10° S 17:51:47 62° W 17:57:01 10° NNW
Cosmos 2219 Rocket 2.2 17:46:53 10° SSW 17:52:30 72° ESE 17:58:07 10° NNE
DNEPR-1 R/B 4.5 17:47:00 10° SSW 17:53:40 62° SE 17:59:05 10° NE
Cosmos 1626 3.8 17:53:51 10° ESE 17:56:05 15° E 17:56:51 14° ENE
Cosmos 1943 Rocket 4.1 17:55:49 10° NNE 17:56:07 10° NNE 17:56:25 10° NNE
Cosmos 1151 Rocket 2.9 17:51:50 10° N 17:56:08 78° E 18:00:25 10° SSE
Cosmos 2322 Rocket 4.3 17:54:14 10° W 17:58:12 19° NW 18:02:11 10° N
MONITOR-E 4.1 17:55:44 10° SSE 17:58:54 76° ENE 18:02:05 10° N
Cosmos 1515 Rocket 4.0 17:55:11 10° NNW 17:59:39 69° W 18:04:03 10° S
Cosmos 2278 Rocket 2.4 17:54:01 10° NNW 17:59:43 80° WSW 18:05:24 10° SSE
SJ-6B 3.8 17:57:45 10° SE 18:01:14 27° ENE 18:04:45 10° N
Aureole 2 Rocket 3.5 17:57:56 10° SSE 18:01:20 32° ESE 18:04:27 13° NE
Cosmos 836 Rocket 4.5 17:56:41 10° SSW 18:01:55 77° ESE 18:07:13 10° NNE
Cosmos 371 Rocket 3.2 17:58:41 10° SSW 18:03:29 82° ESE 18:08:19 10° NNE
Cosmos 1455 3.3 18:00:43 10° NNE 18:03:45 22° ENE 18:06:47 10° ESE
Cosmos 1703 4.3 18:01:08 10° SE 18:04:18 24° E 18:06:55 13° NE
SKYMED 2 3.8 18:02:15 10° NNE 18:06:29 47° E 18:10:39 10° S
Cosmos 1674 4.0 18:02:50 10° SSW 18:06:29 42° WNW 18:10:12 10° N
SMAP 4.2 18:02:59 10° S 18:07:28 48° W 18:12:01 10° NNW
Cosmos 1726 2.3 18:03:47 10° NNW 18:07:34 80° W 18:11:21 10° S
Cosmos 1763 Rocket 4.2 18:04:50 10° SW 18:09:55 53° WNW 18:14:59 10° NNE
Cosmos 1805 Rocket 4.3 18:06:23 10° SSE 18:10:19 32° E 18:14:18 10° NNE
Lacrosse 4 Rocket 2.4 18:06:57 10° NNW 18:10:25 26° NE 18:12:09 19° E
Cosmos 372 Rocket 4.0 18:05:44 10° NNW 18:10:52 82° WSW 18:15:57 10° SSE
Meteor 1-27 4.3 18:11:07 10° N 18:16:58 83° ENE 18:22:49 10° SSE
Cosmos 1500 Rocket 3.8 18:13:01 10° SSW 18:17:20 70° W 18:21:43 10° N
FREGAT/IRIS 3.3 18:18:24 10° SE 18:21:10 32° ENE 18:23:57 10° N
Cosmos 540 Rocket 3.4 18:16:20 10° SSW 18:21:30 78° ESE 18:26:41 10° NNE
Cosmos 2084 3.2 18:19:08 10° SW 18:22:59 75° NW 18:25:29 20° NE
Cosmos 1300 3.5 18:19:39 10° NNW 18:23:25 54° W 18:27:10 10° S
Cosmos 44 Rocket 3.5 18:19:54 10° SW 18:25:01 74° NW 18:29:12 15° NE
ATLAS 3B R/B 4.2 18:20:03 10° NW 18:25:41 23° N 18:29:53 14° NE
Abrixas 3.7 18:24:06 10° SW 18:26:40 28° SSE 18:27:16 25° SE
Sich 1 3.8 18:23:47 10° SSE 18:27:42 32° E 18:29:42 22° NE
Cosmos 2237 Rocket 2.1 18:22:05 10° SSW 18:27:43 82° ESE 18:33:14 11° NNE
Cosmos 1340 Rocket 2.7 18:24:30 10° S 18:28:22 59° E 18:31:55 12° NNE
Cosmos 2369 Rocket 3.4 18:24:05 10° N 18:28:27 22° NE 18:29:27 21° NE
SL-14 R/B 3.4 18:25:30 10° SSW 18:29:27 78° W 18:33:28 10° N
USA 215 3.3 18:23:00 10° ESE 18:29:34 88° SSW 18:36:10 10° NW
NOSS 0 Rocket 4.0 18:25:48 10° SSW 18:32:02 85° WNW 18:38:16 10° NNE
Cosmos 1484 Rocket 3.9 18:28:35 10° S 18:32:24 49° W 18:36:19 10° NNW
Cosmos 1461 3.6 18:29:06 10° S 18:32:50 32° ESE 18:33:36 30° E
Cosmos 2058 2.8 18:28:47 10° S 18:32:54 85° E 18:37:01 10° N
COSMOS 2428 3.9 18:27:40 10° WSW 18:33:00 39° NW 18:38:21 10° NNE
SL-16 R/B 2.5 18:29:25 10° S 18:34:44 44° ESE 18:37:58 22° NE
Cosmos 1633 Rocket 3.7 18:31:13 10° SSE 18:35:10 33° E 18:36:08 30° ENE
Cosmos 1869 3.9 18:36:32 10° N 18:40:06 35° ENE 18:40:06 35° ENE
Cosmos 304 Rocket 3.7 18:37:27 10° S 18:42:11 61° ESE 18:45:06 23° NE
Cosmos 2297 3.9 18:36:41 10° NNW 18:42:24 77° WSW 18:48:07 10° SSE
BREEZE-M DEB (TANK) 3.5 18:42:22 10° SSW 18:44:01 24° SSE 18:44:01 24° SSE
Meteor 1-28 Rocket 3.1 18:44:44 14° NNE 18:47:57 88° W 18:51:40 10° SSW
Lacrosse 5 3.0 18:43:45 10° WNW 18:48:17 32° N 18:50:06 25° NE
BREEZE-M DEB (TANK) 2.3 18:49:56 10° SW 18:51:40 36° SSW 18:51:40 36° SSW
Cosmos 1356 Rocket 3.2 18:50:36 10° S 18:54:32 62° E 18:55:25 47° NE
COSMO-SKYMED 1 3.1 18:50:16 10° N 18:54:33 58° WNW 18:58:49 10° SSW
Cosmos 1707 Rocket 3.6 18:50:43 10° NNW 18:55:04 80° W 18:59:24 10° S
CZ-3A R/B 3.0 18:51:51 10° WNW 18:56:52 67° SW 19:01:31 14° SE
CZ-4C R/B 3.8 18:55:50 10° NW 19:01:18 27° NNE 19:02:59 25° NE
Aureole 1 Rocket 4.2 18:57:10 10° S 19:02:29 47° E 19:05:30 29° NE
Lacrosse 5 rocket 3.9 19:02:22 10° W 19:05:02 18° SW 19:07:47 10° S
Spot 2 Rocket 3.4 19:00:34 10° SSE 19:05:33 67° ENE 19:10:35 10° N
Resurs 01 Rocket 1.5 19:03:50 24° SSE 19:06:24 67° ENE 19:10:50 10° N
CENTAUR R/B 3.7 19:02:36 10° W 19:08:37 39° NNW 19:13:26 18° NNE
Cosmos 1666 Rocket 3.4 19:05:02 10° S 19:09:23 87° E 19:11:29 31° N
BREEZE M DEB (TANK) 4.0 19:08:03 10° WSW 19:09:27 14° SW 19:09:43 14° SSW
FENGYUN 3A 3.5 19:05:36 10° SSE 19:10:57 77° ENE 19:16:21 10° NNW
Resurs 1-3 3.7 19:11:46 58° NE 19:11:46 58° NE 19:15:38 10° N
USA 229 DEB 4.0 19:05:01 10° S 19:11:21 41° ESE 19:12:13 40° E
USA 229 4.0 19:05:09 10° S 19:11:27 41° ESE 19:12:17 40° E
BREEZE-M DEB (TANK) 4.3 18:50:25 10° W 19:11:43 85° N 19:13:47 44° E
Cosmos 1538 Rocket 3.9 19:13:51 10° SSW 19:19:10 86° ESE 19:21:10 40° NNE
Iridium 4 Rocket 3.8 19:16:44 10° S 19:19:42 41° SSE 19:19:42 41° SSE
ATLAS 5 CENTAUR R/B 3.2 19:18:40 10° NNW 19:23:24 31° NNE 19:23:24 31° NNE
Cosmos 44 4.3 19:20:23 10° WSW 19:25:19 43° NW 19:27:14 30° N
ALOS 2.3 19:21:52 10° S 19:26:33 76° WSW 19:31:14 10° NNW
Cosmos 1867 4.3 19:22:50 10° NNW 19:27:09 37° NNE 19:27:09 37° NNE
FengYun 1-2 T 4.4 19:24:23 10° S 19:29:56 73° WSW 19:35:29 10° NNW
Cosmos 1626 3.2 19:27:29 10° SSW 19:31:06 44° WNW 19:31:36 41° NW
Cosmos 2333 Rocket 3.8 19:30:56 10° WSW 19:35:53 30° NW 19:39:53 14° N
Cosmos 2242 Rocket 4.1 19:32:05 10° NNW 19:36:26 57° W 19:40:47 10° S
Cosmos 2219 Rocket 4.1 19:32:25 10° W 19:37:01 25° NW 19:41:07 12° N
Cosmos 1455 4.0 19:36:08 10° NNW 19:39:30 31° W 19:42:53 10° SSW
Cosmos 1943 Rocket 3.6 19:36:44 10° NNW 19:39:22 24° N 19:39:22 24° N
Lacrosse 4 Rocket 2.7 19:45:26 10° NW 19:48:34 38° W 19:48:34 38° W
Cosmos 773 Rocket 4.4 19:55:09 10° SSW 19:59:33 58° WSW 19:59:33 58° WSW
Cosmos 2237 Rocket 4.2 20:08:05 10° W 20:12:30 23° NW 20:15:05 17° N
Cosmos 2369 Rocket 3.1 20:07:33 10° NNW 20:11:17 43° NNW 20:11:17 43° NNW
ATLAS 3B R/B 3.9 20:12:18 10° NW 20:17:08 30° N 20:17:08 30° N
SL-16 R/B 3.4 20:13:45 10° WSW 20:18:57 37° NW 20:19:54 35° NNW
Lacrosse 5 3.9 20:27:19 10° NW 20:29:18 22° NW 20:29:18 22° NW
Resurs 01 Rocket 4.4 20:41:22 12° WSW 20:43:21 15° W 20:45:57 10° NW
CZ-4C R/B 3.9 20:44:24 10° NW 20:48:11 35° NNW 20:48:11 35° NNW
CENTAUR R/B 4.4 20:55:46 10° NW 21:00:37 25° NNW 21:00:37 25° NNW
ATLAS 5 CENTAUR R/B 4.4 21:03:10 10° NW 21:04:58 21° NW 21:04:58 21° NW
